TimeAEST,TemperatureF,Dew PointF,Humidity,Sea Level PressureIn,VisibilityMPH,Wind Direction,Wind SpeedMPH,Gust SpeedMPH,PrecipitationIn,Events,Conditions,WindDirDegrees,DateUTC
12:00 AM,67,64,88,29.88,,West,3.5,,,,,280,2013-09-20 14:00:00
12:00 AM,66.2,64.4,94,29.86,-9999.0,West,3.5,-,N/A,,Clear,280,2013-09-20 14:00:00
12:30 AM,66.2,64.4,94,29.86,-9999.0,West,4.6,-,N/A,,Clear,280,2013-09-20 14:30:00
1:00 AM,67,65,90,29.86,,West,2.3,,,,,280,2013-09-20 15:00:00
1:00 AM,68.0,64.4,88,29.86,6.2,West,2.3,-,N/A,,Scattered Clouds,280,2013-09-20 15:00:00
1:30 AM,68.0,66.2,94,29.83,6.2,Calm,Calm,-,N/A,,Scattered Clouds,0,2013-09-20 15:30:00
2:00 AM,69.8,66.2,88,29.83,6.2,Calm,Calm,-,N/A,,Scattered Clouds,0,2013-09-20 16:00:00
2:30 AM,68.0,66.2,94,29.83,6.2,Calm,Calm,-,N/A,,Partly Cloudy,0,2013-09-20 16:30:00
3:00 AM,68,66,90,29.84,,Calm,Calm,,,,,,2013-09-20 17:00:00
3:00 AM,68.0,66.2,94,29.83,6.2,Calm,Calm,-,N/A,,Scattered Clouds,0,2013-09-20 17:00:00
3:30 AM,68.0,66.2,94,29.83,6.2,South,3.5,-,N/A,,Scattered Clouds,170,2013-09-20 17:30:00
4:00 AM,67,65,91,29.84,,West,2.3,,,,,270,2013-09-20 18:00:00
4:00 AM,66.2,64.4,94,29.83,6.2,West,2.3,-,N/A,,Partly Cloudy,270,2013-09-20 18:00:00
4:30 AM,66.2,64.4,94,29.83,6.2,West,2.3,-,N/A,,Partly Cloudy,280,2013-09-20 18:30:00
5:00 AM,66.2,64.4,94,29.86,6.2,West,4.6,-,N/A,,Partly Cloudy,260,2013-09-20 19:00:00
5:30 AM,66.2,64.4,94,29.86,6.2,West,1.2,-,N/A,,Partly Cloudy,270,2013-09-20 19:30:00
6:00 AM,65,64,95,29.87,,WNW,3.5,,,,,300,2013-09-20 20:00:00
6:00 AM,64.4,64.4,100,29.86,6.2,WNW,3.5,-,N/A,,Partly Cloudy,290,2013-09-20 20:00:00
6:30 AM,64.4,62.6,94,29.89,6.2,WNW,1.2,-,N/A,,Partly Cloudy,300,2013-09-20 20:30:00
7:00 AM,67,65,89,29.91,,South,1.2,,,,,170,2013-09-20 21:00:00
7:00 AM,68.0,64.4,88,29.89,6.2,South,1.2,-,N/A,,Partly Cloudy,170,2013-09-20 21:00:00
7:30 AM,71.6,66.2,83,29.89,6.2,Calm,Calm,-,N/A,,Partly Cloudy,0,2013-09-20 21:30:00
8:00 AM,73.4,64.4,73,29.92,6.2,SE,9.2,-,N/A,,Partly Cloudy,140,2013-09-20 22:00:00
8:30 AM,77.0,66.2,69,29.92,6.2,SE,8.1,-,N/A,,Partly Cloudy,130,2013-09-20 22:30:00
9:00 AM,79,66,57,29.93,19,SE,6.9,,,,Partly Cloudy,140,2013-09-20 23:00:00
9:00 AM,78.8,66.2,65,29.92,6.2,SE,6.9,-,N/A,,Partly Cloudy,140,2013-09-20 23:00:00
9:30 AM,80.6,68.0,65,29.92,6.2,ESE,5.8,-,N/A,,Partly Cloudy,120,2013-09-20 23:30:00
10:00 AM,82.4,68.0,62,29.92,6.2,ENE,8.1,-,N/A,,Partly Cloudy,60,2013-09-21 00:00:00
10:30 AM,82.4,68.0,62,29.92,6.2,NE,9.2,-,N/A,,Partly Cloudy,50,2013-09-21 00:30:00
11:00 AM,80.6,68.0,65,29.89,6.2,NNE,9.2,-,N/A,,Partly Cloudy,20,2013-09-21 01:00:00
11:30 AM,84.2,68.0,58,29.89,6.2,NNE,9.2,-,N/A,,Partly Cloudy,20,2013-09-21 01:30:00
12:00 PM,82,67,53,29.88,,NNE,10.4,,,,,30,2013-09-21 02:00:00
12:00 PM,82.4,68.0,62,29.86,6.2,NNE,10.4,-,N/A,,Partly Cloudy,30,2013-09-21 02:00:00
12:30 PM,82.4,66.2,58,29.86,6.2,NNE,10.4,-,N/A,,Partly Cloudy,20,2013-09-21 02:30:00
1:00 PM,82,66,48,29.86,,NNE,11.5,,,,,20,2013-09-21 03:00:00
1:00 PM,82.4,66.2,58,29.86,6.2,NNE,11.5,-,N/A,,Partly Cloudy,20,2013-09-21 03:00:00
1:30 PM,82.4,68.0,62,29.83,6.2,NNE,11.5,-,N/A,,Partly Cloudy,20,2013-09-21 03:30:00
2:00 PM,82.4,69.8,66,29.83,6.2,NNE,11.5,-,N/A,,Partly Cloudy,20,2013-09-21 04:00:00
2:30 PM,80.6,68.0,65,29.80,6.2,NNE,10.4,-,N/A,,Partly Cloudy,20,2013-09-21 04:30:00
3:00 PM,80.6,68.0,65,29.80,6.2,NNE,10.4,-,N/A,,Partly Cloudy,30,2013-09-21 05:00:00
3:30 PM,80.6,68.0,65,29.80,6.2,NNE,9.2,-,N/A,,Partly Cloudy,20,2013-09-21 05:30:00
4:00 PM,80.6,68.0,65,29.80,6.2,NNE,9.2,-,N/A,,Partly Cloudy,20,2013-09-21 06:00:00
4:30 PM,78.8,69.8,74,29.80,6.2,NNE,8.1,-,N/A,,Partly Cloudy,20,2013-09-21 06:30:00
5:00 PM,78.8,68.0,69,29.80,6.2,NNE,8.1,-,N/A,,Partly Cloudy,30,2013-09-21 07:00:00
5:30 PM,77.0,68.0,74,29.80,6.2,North,6.9,-,N/A,,Partly Cloudy,10,2013-09-21 07:30:00
6:00 PM,76,69,74,29.81,,NNE,5.8,,,,,20,2013-09-21 08:00:00
6:00 PM,77.0,69.8,78,29.80,6.2,North,5.8,-,N/A,,Partly Cloudy,10,2013-09-21 08:00:00
6:30 PM,75.2,69.8,83,29.80,6.2,NNE,3.5,-,N/A,,Partly Cloudy,30,2013-09-21 08:30:00
7:00 PM,74,70,83,29.83,,Calm,Calm,,,,,,2013-09-21 09:00:00
7:00 PM,73.4,69.8,88,29.83,6.2,Calm,Calm,-,N/A,,Partly Cloudy,0,2013-09-21 09:00:00
7:30 PM,73.4,69.8,88,29.83,-9999.0,Calm,Calm,-,N/A,,Clear,0,2013-09-21 09:30:00
8:00 PM,71.6,69.8,94,29.83,-9999.0,Calm,Calm,-,N/A,,Clear,0,2013-09-21 10:00:00
8:30 PM,73.4,69.8,88,29.83,6.2,West,4.6,-,N/A,,Scattered Clouds,280,2013-09-21 10:30:00
9:00 PM,72,69,85,29.85,,Calm,Calm,,,,,,2013-09-21 11:00:00
9:00 PM,71.6,68.0,88,29.83,6.2,Calm,Calm,-,N/A,,Scattered Clouds,0,2013-09-21 11:00:00
9:30 PM,71.6,68.0,88,29.86,6.2,WNW,5.8,-,N/A,,Scattered Clouds,290,2013-09-21 11:30:00
10:00 PM,71,68,87,29.87,,WNW,5.8,,,,,290,2013-09-21 12:00:00
10:00 PM,71.6,68.0,88,29.86,6.2,WNW,5.8,-,N/A,,Scattered Clouds,290,2013-09-21 12:00:00
10:30 PM,69.8,68.0,94,29.86,6.2,Calm,Calm,-,N/A,,Scattered Clouds,0,2013-09-21 12:30:00
11:00 PM,69.8,68.0,94,29.86,6.2,Calm,Calm,-,N/A,,Scattered Clouds,0,2013-09-21 13:00:00
11:30 PM,69.8,66.2,88,29.86,6.2,WNW,4.6,-,N/A,,Scattered Clouds,290,2013-09-21 13:30:00